Omidieh, Iran

10:33 AM +0430 on April 24, 2017 (GMT +0430)
Aghajari

Weather History for OIAG - June, 2013

Change the Weather History Date:

Wednesday, June 19, 2013

  Actual Average Record
Temperature  
Mean Temperature 94 °F -  
Max Temperature 109 °F - - ()
Min Temperature 80 °F - - ()
Cooling Degree Days 30    
Growing Degree Days 44 (Base 50)    
Moisture  
Dew Point 44 °F    
Average Humidity 18    
Maximum Humidity 34    
Minimum Humidity 4    
Precipitation  
Precipitation 0.00 in - - ()
Sea Level Pressure  
Sea Level Pressure 29.44 in    
Wind  
Wind Speed 10 mph ()    
Max Wind Speed 34 mph    
Max Gust Speed -    
Visibility 6.0 miles    
Events      
T = Trace of Precipitation, MM = Missing Value Source: Averaged Metar Reports

Daily Weather History Graph

Daily Weather History Graph

Search for Another Location

Airport or City:

Trip Planner

Search our weather history database for the weather conditions in past years. The results will help you decide how hot, cold, wet, or windy it might be!

Date:

Astronomy

Jun. 19, 2013 Rise Set
Actual Time 6:08 AM +0430 8:16 PM +0430
Civil Twilight 5:40 AM +0430 8:44 PM +0430
Nautical Twilight 5:06 AM +0430 9:18 PM +0430
Astronomical Twilight 4:30 AM +0430 9:54 PM +0430
Moon 3:54 PM +0430 (6/19) 2:24 AM +0430 (6/19)
Length of Visible Light 15h 04m
Length of Day
14h 08m
Waxing Gibbous, 77% of the Moon is Illuminated
Jun 19
Waxing Gibbous
Jun 23
Full
Jun 30
Last Quarter
Jul 8
New
Jul 16
First Quarter

Hourly Weather History & Observations

Time (+0430) Temp. Heat Index Dew Point Humidity Pressure Visibility Wind Dir Wind Speed Gust Speed Precip Events Conditions
12:30 AM 87.8 °F - 44.6 °F 22% 29.42 in - NNW 9.2 mph - N/A   Clear
4:20 AM 81 °F - 49 °F 23% 29.43 in 6 mi NW 6.7 mph - -  
5:30 AM 80.6 °F - 50.0 °F 34% 29.42 in - NW 6.9 mph - N/A   Clear
6:20 AM 80.6 °F - 50.0 °F 34% 29.42 in - Calm Calm - N/A   Clear
6:30 AM 80.6 °F - 50.0 °F 34% 29.42 in - Calm Calm - N/A   Clear
8:30 AM 87.8 °F - 51.8 °F 29% 29.42 in - Calm Calm - N/A   Clear
9:30 AM 91.4 °F 89.1 °F 53.6 °F 28% 29.44 in - Calm Calm - N/A   Clear
10:30 AM 101 °F - 41 °F 7% 29.47 in 6 mi NNW 13.4 mph - -  
11:30 AM 102.2 °F - 42.8 °F 13% 29.47 in - NW 16.1 mph - N/A   Clear
12:30 PM 104.0 °F - 42.8 °F 12% 29.47 in - NW 20.7 mph - N/A   Clear
2:30 PM 107.6 °F - 32.0 °F 7% 29.44 in - NW 18.4 mph - N/A   Clear
3:30 PM 107.6 °F - 35.6 °F 8% 29.44 in - WNW 21.9 mph - N/A   Clear
4:30 PM 109 °F - 35 °F 4% 29.45 in 6 mi NW 33.6 mph - -  
5:30 PM 107.6 °F - 37.4 °F 9% 29.42 in - WNW 33.4 mph - N/A   Clear
6:30 PM 107.6 °F - 39.2 °F 10% 29.42 in - NW 21.9 mph - N/A   Clear
8:30 PM 102.2 °F - 46.4 °F 15% 29.44 in - NW 13.8 mph - N/A   Clear
9:30 PM 98.6 °F - 48.2 °F 18% 29.44 in - West 11.5 mph - N/A   Clear
10:30 PM 95 °F - 46 °F 11% 29.49 in 6 mi North 11.2 mph - -  
11:30 PM 93.2 °F - 48.2 °F 21% 29.47 in - North 9.2 mph - N/A   Clear